Showing default

COSMOS 2271, 23002

Orbit data source: Space-Track

COSMOS 2271, 23002 is a payload satellite owned by VKS (CIS) in LEO that was launched on Sat, 12 Feb 1994 UTC via a TSIKLON-3 launch vehicle from the Plesetsk Missile And Space Complex (PKMTR). Payload-class satellites include a variety of spacecraft equipped with specific instruments for various scientific and technological missions. These include communications satellites like Starlink; space stations such as the ISS; scientific satellites like the Hubble; Earth observation satellites from companies like Planet Labs, Umbra, and HawkEye 360; GPS; miniature CubeSats for education and research; and military/defense satellites.

Loading next visibility...
Identifier
23002, 1994-011D
Orbit
LEO
Country
Flag of CISCIS
Related business
Manufacturer
NPO PM
Mission
Defense Communications
Bus & Motor
STRELA-3, Unknown motor
Mass
225 kg wet, 225 kg dry
Launch date (UTC)
1994-02-12 (32 years ago)
Launch vehicle
TSIKLON-3
Launch site
Plesetsk Missile And Space Complex (PKMTR)
Object type
Payload
Rocket body
Debris
Shape & HBR
Cyl, 0.8 m
Radar Cross Section
1.257 m², Medium (>0.1 m² and < 1m²)

Expand to show TLE details & history
Last TLE update: 10 hours ago

TLE from 10 hours ago
0 COSMOS 2271
1 23002U 94011D   25260.93626930  .00000052  00000-0  22639-3 0  9997
2 23002  82.5615 111.6788 0007850  89.0865 271.1127 12.63512626457106
Epoch: 2025-09-17T22:28Z
TLE epoch observation values (Epoch: 2025-09-17T22:28:13.667Z)
Latitude
0.00006°
Longitude
137.51679°
Altitude
1,411.097 km
Speed
7.155 km/s
True Right ascension
07h 26m 42s
True Declination
0° 00' 00"
Sunlit
Object was in daylight at epoch
Visualization orbit readout
Latitude
Unknown
Longitude
Unknown
Altitude
Unknown
Speed
Unknown
Apparent Right ascension
Unknown
Apparent Declination
Unknown
Sunlit
N/A
Visualization observer readout
Local Sidereal Time
01:36:16
Azimuth
Unknown
Elevation
Unknown
Doppler factor
Unknown
Orbital elements
Apogee altitude
1,411.909 km
Perigee altitude
1,399.689 km
Semi-major axis
7,783.936 km
Eccentricity
0.00079
Inclination
82.5615°
RAAN
111.6788°
Arg. of periapsis
89.0865°
True anomaly
271.02276°
Mean anomaly
271.1127°
Eccentric anomaly
271.06773°
Mean motion
3.16042 °/min
Orbital period
113.91 mins
BSTAR
0.00022639
Loading maneuver chart data...
Computing Atmospheric mass density...
Loading historical data...
Loading historical data...
Loading historical data...
Loading historical data...
Loading historical data...
Loading historical data...
Loading historical data...

Documentation

Showing up to 5 results
|